Theta_e
338 338 340 341 341 340 340 342 344 343 343 344 345 345 346 347 349 351 350 352 353 354 355 356 356 356 356 356 358 359 359 358 358 356 354 355 355 357 356 356 358 361 359 359 361 362 366 368 367 368 369 369 369 369 369 370 370 369 370 371 371 370 370
332 336 339 340 340 341 342 343 344 344 343 343 344 346 346 347 349 349 350 353 353 354 355 354 355 355 356 356 357 359 358 358 358 358 356 356 357 357 357 359 359 361 362 361 362 365 366 365 365 366 367 368 368 370 369 370 370 370 369 370 369 369 370
330 332 335 338 340 340 342 343 344 344 345 343 343 344 345 348 350 350 350 351 352 353 355 354 355 355 355 357 357 357 357 357 357 355 354 352 353 351 354 358 358 358 358 361 363 362 362 363 364 365 366 366 366 369 369 369 370 369 370 370 368 367 370
329 330 334 337 340 342 343 343 343 344 344 344 343 343 345 349 350 351 351 350 351 352 353 353 354 354 355 356 356 356 356 357 357 354 354 354 353 352 353 355 357 357 358 358 358 359 358 361 362 363 364 365 366 368 368 367 367 369 370 370 367 367 368
329 331 332 334 338 340 341 342 343 344 344 344 344 345 346 347 347 349 349 350 350 350 351 352 352 353 355 355 354 355 355 356 356 355 355 354 355 354 352 350 352 353 355 357 360 360 361 360 359 361 361 364 364 366 367 368 367 369 369 370 367 367 366
328 329 330 332 335 338 340 341 343 343 343 343 343 344 344 345 346 346 347 349 349 350 352 353 352 353 353 354 354 353 356 356 357 357 355 355 355 352 351 351 351 352 352 355 357 357 359 359 358 358 358 359 360 360 362 365 365 366 368 368 367 366 363
327 330 331 332 334 339 340 342 342 343 344 343 344 345 344 344 344 345 346 346 348 349 350 350 351 352 354 354 354 355 355 354 355 355 354 354 354 353 352 352 353 351 352 355 355 357 356 358 359 359 359 357 360 359 362 365 364 366 367 368 368 367 367
325 327 331 332 334 337 341 343 343 343 343 343 343 343 343 343 344 344 344 345 346 347 348 348 349 352 353 354 354 353 354 354 354 354 354 353 353 352 352 352 352 353 354 352 354 356 354 356 356 358 357 357 359 361 361 364 366 364 365 366 365 366 365
324 327 329 331 332 335 337 342 344 344 343 343 343 343 343 343 343 343 344 345 346 346 347 348 349 351 354 353 354 354 353 354 354 353 353 352 351 350 350 351 352 353 352 350 350 354 354 354 354 358 359 357 358 361 361 364 363 363 364 364 365 365 363
322 324 327 330 332 334 335 338 340 343 346 345 344 344 343 343 344 343 344 344 345 345 346 348 349 350 352 352 352 353 354 354 353 352 351 350 350 350 350 350 351 353 351 350 350 351 354 355 354 357 359 357 358 360 360 362 362 362 363 364 365 365 366
322 323 325 326 328 331 334 335 336 339 342 346 348 343 344 344 343 343 343 344 344 345 346 348 349 349 350 350 350 351 352 352 352 352 351 350 350 350 350 350 350 351 350 350 349 351 352 355 356 357 358 354 356 358 359 359 361 362 361 362 364 365 364
322 322 323 325 326 327 330 333 336 338 339 341 343 346 346 346 344 343 344 344 345 344 346 347 348 349 349 349 349 350 351 352 351 351 351 350 350 350 349 350 350 350 351 350 349 350 351 353 354 355 357 356 356 358 359 361 362 363 363 360 362 364 364
322 322 322 323 325 326 328 330 333 336 339 340 341 343 347 344 344 343 345 345 344 345 346 347 348 349 349 349 348 350 352 351 351 351 351 352 351 350 350 349 349 349 349 350 350 349 349 350 353 356 356 357 357 356 359 360 360 363 364 363 363 363 364
324 322 322 323 324 325 325 328 331 333 336 338 340 341 344 346 349 345 346 345 345 345 345 346 348 348 349 349 349 351 352 352 352 351 352 353 354 353 351 350 349 349 350 351 350 349 349 348 349 353 354 356 356 357 360 361 360 362 364 364 362 362 363
319 320 320 320 322 323 325 326 327 330 332 335 338 340 340 342 347 349 353 348 347 345 345 347 347 348 348 349 349 352 354 354 353 353 353 353 354 353 352 351 351 350 350 351 350 349 349 349 349 350 352 354 356 357 357 357 358 359 361 362 362 362 360
317 318 319 319 320 322 323 324 327 328 331 333 335 337 338 340 343 346 349 351 347 347 346 347 348 349 347 347 350 353 353 355 355 354 354 354 354 355 354 353 353 351 350 350 349 350 351 351 351 349 350 351 354 356 355 355 357 354 344 347 360 361 358
316 317 318 319 320 321 323 324 325 327 328 330 332 335 337 339 341 344 348 350 352 352 348 348 349 349 348 348 351 353 354 355 354 355 355 355 355 356 355 354 354 353 353 352 351 351 352 351 350 349 349 349 350 352 352 353 352 341 334 334 338 354 360
314 316 317 318 320 321 321 322 324 325 327 329 330 332 332 335 339 342 344 348 351 353 355 348 347 347 350 350 353 354 354 353 354 354 355 356 355 355 356 355 355 355 355 353 351 353 352 350 350 351 350 349 350 349 350 352 343 333 331 332 332 340 356
315 315 316 317 318 320 320 321 323 325 326 329 330 331 332 333 335 337 340 344 350 355 356 355 348 349 350 350 352 354 354 355 355 355 355 356 356 357 357 356 355 354 354 351 353 353 352 352 351 351 351 350 351 350 350 351 339 331 329 330 330 330 342
316 316 317 317 318 318 320 322 323 325 327 329 331 331 331 332 332 334 338 343 348 354 355 356 356 351 350 352 354 354 355 356 355 354 355 357 357 357 357 356 355 355 354 354 355 354 353 352 352 352 353 352 352 353 352 352 341 329 327 327 327 328 334
314 316 317 317 317 317 320 322 323 325 326 329 331 331 330 329 330 332 334 339 345 346 353 355 356 354 352 353 353 354 355 356 355 355 357 357 358 358 357 356 357 356 355 354 354 354 354 352 352 353 353 352 352 352 352 351 336 327 325 324 324 326 331
313 314 316 318 318 319 320 322 323 324 325 330 330 329 329 328 329 330 332 339 342 343 347 348 354 356 357 354 355 354 355 355 355 356 357 357 357 357 356 357 358 357 357 355 354 355 355 355 354 353 353 353 353 351 351 352 332 326 323 322 322 325 341
314 315 316 318 319 320 321 323 324 326 327 327 328 327 327 328 329 329 332 336 338 341 345 344 344 346 354 357 356 355 356 355 354 356 356 357 357 356 356 357 357 358 359 356 354 353 354 355 354 356 354 354 354 352 353 353 338 323 321 321 321 326 347
315 315 316 317 320 321 322 323 324 326 327 327 326 327 328 328 328 329 332 333 336 338 340 339 337 339 344 351 357 360 359 358 357 357 357 358 357 356 357 358 359 358 360 357 355 353 354 356 356 356 356 355 354 353 353 354 343 321 319 319 319 331 350
314 315 316 317 318 319 321 323 324 325 326 326 324 325 327 327 328 329 330 331 332 334 335 333 332 335 339 343 348 353 359 360 361 358 357 357 357 357 357 358 359 360 362 359 358 356 358 357 356 356 357 356 355 350 352 355 346 321 319 318 317 330 352
314 315 316 317 318 320 322 324 324 323 323 324 325 326 326 326 326 329 329 329 330 330 330 329 330 331 335 339 343 347 351 357 359 361 360 358 359 360 359 361 359 360 359 358 359 358 358 357 358 356 357 357 357 356 355 355 357 348 318 317 315 319 350
314 315 315 316 317 321 321 322 322 322 323 324 326 325 325 325 326 327 328 328 328 328 328 328 330 332 333 335 338 341 345 352 358 359 360 361 361 361 361 360 359 359 359 358 358 358 358 357 357 357 357 357 358 358 357 357 357 358 317 316 315 316 328
312 314 315 317 318 319 319 320 322 323 322 324 323 325 324 324 325 327 327 327 327 327 327 328 329 331 332 333 335 338 343 346 350 356 358 361 362 361 361 362 362 361 360 358 358 359 358 358 357 356 356 358 359 359 359 357 347 359 325 316 314 314 316
311 311 312 314 316 317 317 319 320 321 322 322 322 324 325 324 324 325 327 326 327 328 328 329 329 329 330 332 336 340 343 347 349 348 351 357 360 360 359 361 362 362 362 361 359 359 358 357 357 356 355 356 358 359 361 362 359 335 348 318 314 312 313
311 312 312 313 314 316 317 317 320 321 323 323 324 325 325 324 323 325 326 326 327 328 329 329 328 329 329 330 333 338 342 345 347 349 350 350 352 357 359 359 359 360 360 360 358 356 355 355 356 355 354 355 356 359 361 364 363 342 332 336 313 313 312
310 311 311 311 313 316 317 316 317 319 322 323 324 325 325 324 323 324 324 325 326 327 328 328 328 327 328 329 331 334 339 343 345 348 349 349 350 349 353 357 358 358 359 359 358 357 356 356 356 356 356 356 356 358 360 362 362 362 344 327 319 313 312
310 311 311 312 313 315 316 316 317 318 320 322 325 324 325 323 323 322 324 326 326 327 327 327 326 326 327 329 330 332 335 338 341 343 348 351 351 352 352 355 357 357 358 358 357 357 357 356 356 356 357 356 358 358 360 361 363 362 362 339 329 321 314
309 310 311 311 313 315 315 316 315 317 319 320 323 324 323 322 323 323 324 325 324 325 325 326 325 325 326 327 329 331 333 336 338 340 342 346 351 354 355 357 359 359 358 359 358 357 356 356 356 356 356 356 357 359 359 360 361 362 362 362 355 348 337
308 310 311 312 313 314 314 315 316 316 318 320 323 324 324 322 322 323 323 323 323 323 323 324 325 324 324 325 327 330 333 334 337 338 338 342 346 349 352 355 358 359 359 360 359 358 357 357 356 356 357 357 358 358 358 358 360 361 361 361 360 357 353
309 310 311 311 313 314 313 314 315 317 318 319 322 324 323 321 322 322 322 322 322 322 321 322 324 324 324 325 327 328 331 332 333 334 336 338 342 346 349 351 353 356 360 364 365 363 360 359 359 360 360 361 360 360 359 360 360 361 340 361 338 354 358
308 309 310 312 313 314 314 315 316 317 318 320 323 324 323 321 321 322 321 321 321 321 320 321 321 322 323 325 326 327 327 328 329 332 334 336 337 339 342 341 326 336 351 356 345 335 331 332 360 364 364 361 362 365 361 360 363 339 325 322 321 320 324
307 308 309 311 312 312 313 315 316 317 318 320 323 324 322 320 320 320 320 320 320 320 320 320 320 320 321 323 324 324 325 325 327 330 332 333 334 335 336 339 343 320 316 320 331 330 319 314 318 321 326 355 363 358 335 333 331 328 319 314 314 314 313
308 309 310 312 312 313 314 315 316 317 319 321 323 323 322 320 319 319 319 319 318 319 319 319 319 319 320 321 322 323 324 325 326 328 329 330 332 333 334 336 337 341 328 322 318 315 313 311 311 312 315 318 330 351 367 335 318 317 313 310 311 311 311
Wind_Speed
12 15 15 15 15 17 17 17 17 16 16 16 16 18 18 16 15 13 14 14 16 15 14 14 14 13 15 13 13 12 11 10 9 10 9 8 7 7 7 7 7 6 6 6 5 6 5 5 6 6 6 6 6 6 6 5 5 4 4 4 3 3 3
11 7 14 15 15 17 18 17 17 16 15 16 16 18 17 18 16 15 14 14 16 16 15 15 15 14 14 13 12 12 12 12 11 9 9 7 6 6 7 7 7 6 6 5 5 5 5 5 6 6 7 7 7 7 7 6 6 5 5 5 4 4 3
12 12 12 10 16 16 18 17 17 17 16 16 16 17 17 17 16 17 15 15 16 16 14 16 16 15 14 13 13 13 13 12 12 11 12 11 12 12 9 8 7 7 7 6 6 5 5 5 6 6 7 7 7 7 7 7 7 6 6 5 5 5 4
13 13 12 12 13 15 17 18 18 18 17 18 19 20 19 17 17 16 17 18 18 17 17 16 15 15 13 14 14 13 14 13 13 13 13 12 11 10 8 8 7 7 7 8 7 6 5 5 6 6 7 6 7 6 7 7 7 6 6 6 5 6 5
16 16 13 13 11 10 14 15 16 17 18 19 19 18 18 17 17 16 16 17 19 20 19 19 16 15 13 14 12 12 14 15 14 13 12 11 10 9 10 11 9 10 8 7 6 6 6 6 6 6 6 6 6 6 7 6 7 6 6 6 6 5 5
17 15 14 13 12 10 11 14 16 17 16 17 18 17 17 18 16 18 18 17 17 16 16 16 17 16 16 16 14 13 13 13 12 12 11 10 10 10 11 11 11 11 9 9 7 7 7 7 7 7 7 7 7 7 7 7 7 7 7 7 6 6 6
15 17 15 14 14 10 10 12 14 14 15 16 15 15 16 17 19 18 17 17 18 17 18 18 17 15 14 13 14 14 15 14 13 14 12 12 11 11 11 10 10 10 10 7 8 7 8 8 8 7 7 7 6 7 7 7 7 7 6 7 7 7 7
15 16 19 17 15 16 7 10 12 13 13 12 13 14 16 16 16 18 18 17 18 17 17 18 17 15 14 13 13 15 14 15 13 13 12 14 12 13 11 11 11 10 9 10 9 9 9 9 8 8 8 8 8 7 7 7 7 7 7 7 7 8 6
17 16 17 18 18 16 16 16 5 12 14 14 16 15 17 16 16 17 19 18 17 17 18 18 17 15 14 14 14 15 14 14 13 13 14 15 13 14 14 12 12 10 11 11 10 10 10 10 9 8 8 8 7 7 7 8 8 8 8 8 8 8 8
17 18 18 18 18 16 16 14 16 17 8 9 12 12 15 14 15 15 16 17 17 19 19 17 15 15 14 14 15 15 14 14 14 15 15 15 14 15 15 13 12 11 12 12 10 10 10 10 10 9 8 9 9 8 8 8 8 8 8 9 9 9 9
14 16 17 20 19 19 19 20 20 15 13 14 5 11 12 13 14 15 15 15 17 17 17 16 14 14 15 16 16 16 15 16 15 14 16 16 14 16 15 14 12 11 13 12 12 11 10 10 10 10 10 10 10 10 10 10 9 9 9 9 9 9 9
12 14 16 17 19 20 18 17 17 17 17 13 14 8 8 10 13 15 14 16 16 15 15 15 14 14 14 15 16 15 16 15 15 16 17 16 16 16 15 14 13 12 11 13 13 12 11 11 10 10 11 11 11 11 11 10 10 10 10 10 9 9 9
12 12 13 15 15 15 16 18 19 19 17 16 15 14 12 5 12 13 13 15 16 15 15 15 14 14 14 15 16 14 15 16 16 15 15 15 15 13 13 14 14 14 13 13 13 13 13 12 12 10 11 12 12 12 11 11 11 10 10 10 9 9 9
15 16 17 16 16 16 16 15 16 18 18 18 15 15 13 13 10 5 11 13 15 15 15 13 14 14 14 14 14 14 14 15 15 15 14 13 12 13 13 13 13 13 13 12 13 14 14 14 14 12 12 12 12 12 11 10 10 10 10 10 10 10 10
17 17 17 17 15 14 15 14 13 15 17 16 18 16 15 13 12 11 8 8 12 14 15 14 14 14 15 14 14 13 13 13 12 12 13 12 12 13 13 13 13 12 12 12 12 12 13 14 13 13 12 12 12 12 11 11 11 10 10 10 11 11 11
15 16 16 15 14 14 12 12 12 13 14 15 17 17 17 14 13 12 9 9 6 12 12 12 13 14 15 15 14 13 12 12 11 12 12 12 13 13 13 13 12 13 13 13 13 12 12 12 12 13 13 13 12 12 11 11 10 11 15 13 10 11 10
15 16 15 15 15 14 13 13 12 12 13 14 15 15 14 14 13 12 12 9 9 6 11 12 11 12 14 15 14 13 12 11 12 12 12 13 12 12 13 13 12 12 12 13 13 13 12 12 13 13 13 14 14 14 12 11 11 16 16 16 16 12 10
14 15 15 15 15 14 14 14 13 13 13 13 13 13 13 13 13 13 13 13 11 8 8 11 13 14 13 13 11 11 12 12 13 13 13 12 13 13 13 12 12 12 12 12 13 12 12 13 14 14 14 13 14 14 14 13 14 16 17 17 17 15 12
12 13 14 14 14 14 14 14 13 13 12 11 11 11 12 11 11 12 12 13 12 9 8 8 11 12 12 13 12 12 12 12 13 13 13 13 14 13 12 13 13 13 13 15 14 12 13 14 14 14 14 14 14 15 15 14 14 16 17 18 18 18 15
12 12 13 13 13 13 13 13 13 12 12 11 11 11 10 9 10 10 11 10 11 11 9 8 8 11 13 12 11 11 12 12 13 14 14 13 13 12 13 14 15 15 15 13 12 12 13 15 15 14 14 14 15 14 14 15 14 17 18 18 18 18 15
13 13 13 14 14 14 13 15 15 14 14 13 13 11 10 10 10 10 10 11 11 12 12 9 7 8 10 11 11 11 12 12 13 13 13 13 13 13 13 14 14 14 13 13 14 14 14 15 15 14 15 16 16 14 15 14 16 16 18 19 19 18 15
13 13 13 12 14 14 13 14 15 15 14 13 12 12 10 10 10 10 10 10 10 9 10 12 11 7 7 9 10 11 12 12 13 13 12 12 13 13 14 14 14 14 13 12 13 13 13 13 15 16 17 17 17 16 16 15 17 17 18 19 18 17 10
11 12 12 12 12 13 12 12 13 13 12 12 12 12 11 11 9 9 8 10 9 9 8 8 9 11 10 5 8 10 11 12 13 13 13 13 13 14 15 14 14 14 11 13 14 13 13 14 14 14 15 17 17 17 16 16 16 19 19 19 19 13 10
10 11 11 13 12 11 12 11 12 12 12 13 12 12 11 12 11 8 7 8 8 9 8 9 9 10 10 8 6 4 8 10 12 12 12 12 13 15 14 14 12 12 12 14 14 15 15 13 13 13 14 16 17 16 16 16 15 20 20 20 19 16 12
11 11 11 11 13 13 12 11 11 12 12 12 12 13 12 12 11 8 8 8 9 9 8 9 10 11 11 11 10 10 8 8 10 11 12 13 14 14 14 14 13 12 11 12 12 14 13 12 12 13 13 15 17 16 17 16 14 19 20 21 20 17 11
13 12 11 12 11 12 12 11 11 12 13 13 13 12 13 12 11 9 8 9 8 8 9 9 9 10 10 10 9 9 10 10 10 11 12 13 13 12 12 11 12 12 12 13 12 12 12 12 12 14 13 13 14 14 17 17 15 14 21 21 21 22 13
12 13 13 12 12 12 11 11 10 11 11 10 12 11 11 11 11 10 8 8 8 9 9 10 9 9 9 10 10 11 10 9 8 10 12 13 12 12 12 11 12 12 12 13 12 12 12 14 13 13 13 13 14 14 15 15 15 13 21 20 21 22 19
14 14 13 12 12 11 10 11 11 12 11 10 11 11 10 10 11 11 10 7 8 10 10 10 11 10 10 10 10 11 11 9 9 8 8 10 10 12 13 12 12 11 12 12 12 13 13 12 12 13 13 12 13 14 14 14 16 14 17 21 22 22 25
14 14 14 14 13 12 12 11 11 12 11 9 10 9 10 11 12 11 11 10 9 10 12 12 9 11 10 9 10 9 9 9 11 10 7 7 10 12 14 13 13 12 12 12 12 12 13 12 12 12 13 13 12 12 13 13 12 17 13 19 22 23 23
12 14 14 14 13 13 13 12 10 11 11 10 8 8 8 9 10 11 11 11 9 9 10 12 10 10 11 11 10 10 9 9 9 10 8 8 8 9 12 14 15 16 14 14 16 16 17 16 15 15 15 16 14 13 14 11 12 13 17 15 22 21 23
11 13 15 15 14 12 12 13 13 12 12 11 10 7 6 7 10 12 11 10 10 9 9 11 12 11 11 11 11 11 11 10 9 8 8 7 7 7 9 13 15 14 15 16 16 16 16 16 15 15 16 15 15 15 14 13 12 12 14 20 19 22 22
12 12 14 15 15 12 12 13 14 13 12 11 9 7 6 6 7 11 11 11 10 8 9 9 11 12 12 11 11 12 12 12 12 11 9 8 6 7 9 13 14 15 15 16 16 16 16 16 15 15 15 15 16 16 14 12 10 11 10 12 15 16 20
12 12 13 15 15 14 12 11 12 13 13 12 9 6 6 6 7 8 10 10 10 9 8 8 10 10 10 11 11 11 11 12 10 10 11 9 6 6 9 11 12 13 14 15 16 16 16 14 15 15 15 16 16 15 14 12 12 12 11 9 10 10 11
15 13 13 13 15 15 14 13 12 13 13 11 8 5 4 5 6 7 8 10 10 10 9 8 8 10 10 11 11 10 11 11 15 14 11 10 8 8 8 10 10 12 13 14 15 16 16 16 15 15 17 16 16 15 14 14 13 13 12 12 11 11 11
15 15 14 14 14 14 13 13 14 13 13 12 9 8 6 4 5 5 7 9 10 10 10 9 10 10 11 10 8 8 9 10 11 11 11 11 11 10 9 8 9 9 12 15 15 15 16 16 15 15 16 15 13 12 12 12 13 13 13 13 14 13 11
15 15 15 14 13 14 15 15 15 14 13 12 9 7 7 4 4 4 5 6 8 9 10 10 9 10 11 9 7 7 8 10 11 12 10 11 11 11 11 11 11 11 12 12 14 14 17 13 13 13 11 15 13 11 12 12 12 11 13 14 13 14 15
17 16 15 15 15 16 16 16 15 15 14 12 10 8 6 4 4 3 3 5 6 8 9 9 8 9 9 9 8 8 9 10 11 11 10 10 11 11 11 11 10 11 14 15 17 17 15 17 19 15 10 11 14 12 11 13 9 4 11 15 16 16 16
16 16 16 16 15 16 17 16 16 15 14 11 10 10 8 7 5 3 3 5 6 6 8 9 8 8 10 10 11 10 8 8 10 11 12 11 11 11 11 10 10 12 9 10 13 16 18 15 16 17 18 18 13 11 9 11 15 13 11 14 16 17 17
Wind_Direction
231 220 218 212 209 206 204 202 196 192 188 188 189 192 192 190 188 184 185 184 188 190 186 187 189 190 195 198 198 195 194 188 188 192 193 200 202 193 193 201 202 200 205 212 212 214 212 196 189 190 188 191 198 201 212 215 216 219 220 220 222 228 229
357 278 227 214 215 209 207 202 197 195 191 190 189 190 191 190 187 186 186 185 189 189 185 188 190 193 196 197 197 196 193 194 191 189 190 188 188 197 199 195 199 199 203 210 211 216 214 200 198 195 195 195 201 197 198 204 211 217 222 215 218 218 218
356 346 336 274 224 214 209 203 196 196 192 190 190 190 191 189 184 183 184 186 190 192 189 189 190 193 194 195 195 198 198 197 194 193 196 198 196 201 199 199 201 207 208 202 210 216 212 213 198 201 199 201 203 196 197 198 202 210 220 217 223 224 215
358 349 329 321 302 237 213 204 200 198 195 194 193 192 192 187 183 183 185 186 188 189 190 190 192 195 194 193 196 197 199 200 198 200 203 202 191 189 186 194 200 207 200 205 207 206 207 204 204 204 203 207 203 200 197 202 201 203 210 217 227 227 226
360 354 350 340 321 283 228 211 205 198 200 199 195 191 191 187 187 189 189 192 192 192 191 189 192 194 195 194 196 198 199 200 199 201 202 200 188 183 189 199 199 207 209 203 194 196 200 203 208 205 205 209 208 200 201 200 206 199 205 211 227 225 228
8 358 352 343 328 292 251 222 212 204 201 200 195 191 192 190 191 193 194 192 196 196 192 192 193 190 192 194 195 197 196 198 200 199 199 194 185 191 197 199 198 201 204 204 199 203 200 207 210 209 210 211 212 210 206 204 207 206 204 207 221 230 233
11 12 4 354 347 321 244 222 212 210 208 203 198 192 190 191 193 196 195 196 195 191 192 194 195 193 194 191 196 195 193 195 196 201 201 201 194 196 199 198 198 200 207 192 202 199 202 207 210 209 212 218 216 215 208 205 205 204 205 207 214 221 228
18 16 17 9 5 8 338 220 208 210 204 200 199 191 190 193 193 194 195 197 195 197 197 196 194 194 191 191 194 198 198 200 199 199 200 201 197 200 200 201 198 198 191 199 202 200 207 209 211 210 211 217 218 217 215 208 205 209 207 212 215 220 221
26 20 19 18 18 14 19 14 318 211 201 200 199 196 196 193 194 194 196 195 195 198 200 199 198 194 189 190 192 196 198 198 199 196 198 201 203 205 206 203 203 196 198 205 204 199 206 208 210 203 202 214 218 213 217 213 213 212 212 214 214 218 223
26 23 21 24 23 24 22 23 25 15 340 214 192 194 194 195 194 196 196 195 196 200 200 199 197 193 190 192 197 197 195 196 199 198 199 203 207 208 208 207 203 198 203 206 207 201 201 205 204 199 198 209 214 214 217 216 215 215 214 215 217 219 221
19 22 25 25 24 24 25 28 26 14 7 3 311 201 192 192 191 196 196 196 199 201 200 198 196 195 194 195 198 199 199 202 200 201 201 204 207 209 207 207 205 200 205 207 212 211 204 201 200 197 197 207 212 213 214 217 215 214 219 219 218 220 223
16 22 25 27 25 22 23 26 25 23 19 9 12 333 224 191 194 197 196 199 199 200 199 200 198 198 196 196 199 200 201 201 201 203 203 204 207 208 207 206 206 204 202 206 210 211 212 208 204 201 201 206 209 211 213 213 214 214 219 223 221 219 223
19 25 24 28 26 21 20 19 22 24 20 20 14 10 3 267 209 201 199 198 198 199 197 196 194 194 195 197 200 199 200 199 201 203 203 203 206 207 206 206 207 206 206 204 209 210 214 215 212 207 206 207 210 213 212 211 212 213 216 221 223 221 221
17 23 23 24 24 21 17 12 13 13 18 17 17 14 10 11 3 266 210 197 198 197 196 192 192 191 194 197 201 201 199 199 202 204 204 204 201 203 205 206 206 207 208 204 206 211 214 216 214 212 211 213 213 215 213 210 210 210 213 216 219 219 223
20 18 18 19 15 14 12 14 9 10 13 15 17 12 11 10 4 4 349 236 207 204 201 195 190 192 193 196 200 203 199 198 202 204 202 199 196 198 203 205 205 204 203 202 207 211 215 217 218 218 216 216 215 216 216 217 215 212 210 212 215 219 225
17 16 14 12 8 2 3 7 8 5 3 11 14 12 10 3 2 1 357 351 259 216 211 196 190 189 196 200 202 198 197 195 196 199 200 197 199 199 202 205 204 203 204 206 208 212 212 214 216 218 217 216 215 215 217 218 218 210 208 209 213 214 222
13 11 8 7 3 358 355 356 1 360 5 8 6 5 4 359 358 352 359 355 348 303 223 204 195 191 195 204 202 196 195 193 198 199 198 199 199 198 201 204 205 205 207 207 207 208 206 206 212 218 221 222 221 219 219 221 221 213 206 210 214 219 221
8 4 3 2 358 355 355 354 352 356 360 359 359 358 357 355 352 350 353 351 341 330 315 235 210 202 202 206 197 192 192 196 198 199 203 201 202 201 200 200 201 203 204 206 208 205 206 210 214 219 221 223 224 225 225 225 220 208 208 208 211 213 222
6 0 0 356 353 354 353 350 345 347 347 350 354 349 351 348 348 348 342 338 336 330 319 301 232 208 207 210 201 196 195 196 195 198 202 202 202 200 197 198 202 207 209 212 212 209 207 212 213 214 217 222 224 227 228 231 215 204 206 208 208 209 215
2 2 356 355 352 350 349 346 346 340 341 344 342 343 341 344 344 338 336 329 331 341 330 320 282 227 210 207 202 199 198 196 198 201 203 202 201 199 199 200 204 207 208 210 206 205 207 211 213 215 215 218 223 227 230 232 220 201 204 206 207 207 205
355 356 353 353 350 350 346 345 344 339 338 343 341 337 339 343 345 340 335 337 341 353 345 344 312 259 228 212 207 204 201 199 201 204 203 201 199 200 204 206 210 209 208 208 206 204 205 210 213 214 213 216 218 223 227 230 223 202 202 205 206 206 200
352 347 349 349 346 343 344 343 343 341 333 331 336 338 339 341 340 343 339 334 351 344 353 1 358 328 257 227 213 209 207 205 206 207 205 203 201 203 206 209 208 209 209 215 219 218 215 211 212 211 212 214 217 221 226 230 213 201 201 203 205 199 199
344 342 340 341 342 340 340 336 337 334 330 332 331 339 337 337 337 338 341 347 345 342 352 360 2 354 344 274 228 220 216 214 212 210 208 204 203 206 210 210 210 211 207 212 219 221 220 220 217 219 220 218 215 216 221 226 207 195 199 202 201 187 205
338 338 339 337 336 337 340 337 335 335 335 332 334 337 338 334 334 336 346 348 343 345 356 1 358 351 332 345 348 274 233 223 219 218 211 207 207 210 212 212 212 211 204 211 215 221 223 221 224 224 224 224 223 219 221 225 206 188 195 199 192 187 198
334 334 334 334 333 333 335 336 329 331 330 334 337 338 338 337 329 338 351 351 352 350 358 355 350 335 331 338 334 335 312 253 234 226 220 215 216 217 217 213 211 209 205 211 216 224 225 224 227 227 226 227 228 222 225 232 217 187 193 195 189 189 202
327 330 329 329 332 333 328 325 330 335 338 337 339 335 340 340 336 335 347 354 353 355 347 344 329 318 326 327 324 311 299 286 254 235 228 225 223 221 221 217 217 215 211 215 219 222 223 225 228 231 232 231 231 230 224 230 232 194 191 189 190 188 196
317 320 321 325 330 329 324 326 330 331 330 331 333 337 337 340 337 337 342 348 349 347 339 329 324 326 327 324 320 312 307 305 282 256 246 239 234 230 227 224 224 220 215 217 220 220 222 223 227 232 235 234 233 234 231 230 229 205 185 191 188 190 193
311 312 315 318 321 324 327 324 323 322 327 331 333 337 337 336 336 332 336 344 347 339 333 333 336 334 330 325 315 309 300 301 310 304 263 249 248 242 237 232 225 221 218 220 220 218 218 219 222 229 235 237 234 234 234 230 221 225 184 188 189 189 195
305 308 310 314 316 321 323 323 319 318 319 324 331 334 336 334 334 330 331 338 345 339 332 330 338 335 328 321 317 317 309 296 288 282 293 278 249 245 246 240 230 223 221 217 220 219 220 219 219 226 232 237 238 235 232 230 219 214 204 188 191 192 197
292 298 302 303 306 311 316 313 311 312 315 319 322 327 333 333 330 328 326 328 334 337 332 327 333 336 329 325 322 317 310 303 288 282 281 292 302 281 257 247 243 238 233 230 232 234 235 236 234 232 234 236 237 237 237 221 223 202 205 190 192 194 199
290 294 297 300 301 305 305 306 309 310 310 312 315 320 326 329 325 321 320 321 325 339 338 330 331 334 329 326 323 320 315 307 302 283 265 270 279 292 283 260 246 242 238 235 233 234 235 235 231 231 235 234 237 238 236 227 218 223 199 197 187 197 200
284 286 289 293 294 296 300 301 301 304 304 305 307 310 318 319 319 314 316 321 327 330 332 334 333 331 327 323 321 320 315 309 304 296 276 244 235 252 257 260 250 241 238 233 233 232 232 233 234 234 233 233 235 236 236 230 225 225 214 187 194 197 202
286 284 287 288 290 296 297 298 296 296 300 300 300 298 304 312 309 309 315 319 322 327 333 333 331 326 323 320 320 317 313 308 303 306 304 291 267 237 252 256 248 244 238 236 236 232 230 230 232 235 234 234 234 234 235 236 237 232 223 201 189 196 197
289 287 282 281 285 290 291 288 286 288 293 294 294 284 287 297 303 312 317 316 320 322 332 332 328 323 318 316 314 314 315 312 308 305 298 294 286 272 255 260 259 248 242 239 237 233 231 229 229 231 235 236 234 233 233 234 233 226 219 214 206 201 193
289 286 285 284 285 286 285 286 285 286 285 286 287 287 284 274 293 309 313 315 320 326 325 319 321 319 312 311 309 316 318 311 308 303 299 295 288 274 269 269 276 281 273 255 242 238 238 233 227 229 234 238 233 222 221 225 225 222 211 212 205 206 207
286 284 284 283 282 281 282 280 280 281 280 279 280 276 278 266 276 290 307 317 321 321 317 319 320 317 311 311 311 319 322 316 309 301 296 295 296 298 292 278 266 268 278 286 284 252 237 241 244 239 236 241 239 226 224 219 222 220 198 203 204 204 209
286 283 280 283 284 281 278 280 281 280 278 278 276 269 261 261 271 276 296 313 314 314 308 311 311 306 304 310 313 320 318 311 303 299 299 297 295 293 294 301 291 267 264 261 262 265 256 235 239 252 266 254 255 246 227 244 260 223 185 196 205 206 209
283 280 278 277 276 276 278 278 279 279 278 276 272 272 268 272 269 265 281 301 309 309 303 301 300 300 305 307 308 314 314 306 302 302 302 301 298 296 297 298 301 303 300 301 294 265 248 242 241 238 233 240 238 246 248 221 227 231 194 197 203 207 210